| time (UTC) | temp F | wind direction | speed knots | gust knots | rain 1hr in | rain 24hr in | rain mn in | humidity % | barometer mb |
| 20260504214417 | 36 | 12 | 6.1 | 13.9 | 0.00 | 0.00 | 0.00 | 83 | 916.5 |
| 20260504213424 | 39 | 310 | 10.4 | 17.4 | 0.00 | 0.00 | 0.00 | 75 | 915.9 |
| 20260504212922 | 41 | 303 | 5.2 | 7.8 | 0.00 | 0.00 | 0.00 | 71 | 915.7 |
| 20260504211921 | 43 | 345 | 2.6 | 4.3 | 0.00 | 0.00 | 0.00 | 62 | 915.2 |
| 20260504210925 | 47 | 17 | 4.3 | 7.8 | 0.00 | 0.00 | 0.00 | 52 | 915.0 |
| 20260504205928 | 52 | 285 | 0.9 | 8.7 | 0.00 | 0.00 | 0.00 | 43 | 914.9 |
| 20260504204929 | 53 | 249 | 2.6 | 8.7 | 0.00 | 0.00 | 0.00 | 43 | 914.5 |
| 20260504203934 | 54 | 227 | 2.6 | 8.7 | 0.00 | 0.00 | 0.00 | 42 | 915.2 |
| 20260504202934 | 53 | 303 | 2.6 | 5.2 | 0.00 | 0.00 | 0.00 | 40 | 915.3 |
| 20260504202414 | 53 | 229 | 2.6 | 7.8 | 0.00 | 0.00 | 0.00 | 41 | 915.5 |
| 20260504201417 | 51 | 291 | 2.6 | 7.8 | 0.00 | 0.00 | 0.00 | 46 | 915.4 |
| 20260504200420 | 50 | 278 | 3.5 | 12.2 | 0.00 | 0.00 | 0.00 | 48 | 915.4 |
| 20260504195424 | 49 | 291 | 7.0 | 12.2 | 0.00 | 0.00 | 0.00 | 51 | 915.4 |
| 20260504194424 | 49 | 296 | 3.5 | 13.0 | 0.00 | 0.00 | 0.00 | 53 | 915.5 |
| 20260504193433 | 49 | 288 | 3.5 | 7.0 | 0.00 | 0.00 | 0.00 | 50 | 915.5 |
| 20260504192434 | 49 | 277 | 3.5 | 10.4 | 0.00 | 0.00 | 0.00 | 52 | 915.4 |
| 20260504191919 | 49 | 252 | 3.5 | 10.4 | 0.00 | 0.00 | 0.00 | 54 | 915.6 |
| 20260504191415 | 49 | 251 | 1.7 | 7.0 | 0.00 | 0.00 | 0.00 | 54 | 915.7 |
| 20260504190418 | 49 | 264 | 1.7 | 7.8 | 0.00 | 0.00 | 0.00 | 53 | 915.9 |
| 20260504185421 | 49 | 248 | 3.5 | 7.8 | 0.00 | 0.00 | 0.00 | 54 | 916.3 |
| 20260504184422 | 46 | 222 | 4.3 | 13.0 | 0.00 | 0.00 | 0.00 | 56 | 916.3 |
| 20260504182933 | 49 | 273 | 4.3 | 9.6 | 0.00 | 0.00 | 0.00 | 51 | 916.7 |
| 20260504182413 | 49 | 271 | 3.5 | 9.6 | 0.00 | 0.00 | 0.00 | 54 | 916.9 |
| 20260504181417 | 47 | 261 | 2.6 | 7.8 | 0.00 | 0.00 | 0.00 | 54 | 916.6 |
| 20260504180421 | 48 | 293 | 4.3 | 10.4 | 0.00 | 0.00 | 0.00 | 39 | 916.6 |
| 20260504175425 | 48 | 315 | 8.7 | 15.6 | 0.00 | 0.00 | 0.00 | 39 | 916.6 |
| 20260504174426 | 49 | 308 | 5.2 | 8.7 | 0.00 | 0.00 | 0.00 | 38 | 916.6 |
| 20260504173433 | 48 | 297 | 3.5 | 13.9 | 0.00 | 0.00 | 0.00 | 39 | 916.8 |
| 20260504172417 | 48 | 306 | 7.0 | 14.8 | 0.00 | 0.00 | 0.00 | 36 | 916.7 |
| 20260504171424 | 49 | 296 | 7.8 | 13.0 | 0.00 | 0.00 | 0.00 | 37 | 916.5 |
| 20260504170426 | 48 | 296 | 7.8 | 10.4 | 0.00 | 0.00 | 0.00 | 40 | 916.7 |
| 20260504150914 | 47 | 280 | 2.6 | 6.1 | 0.00 | 0.00 | 0.00 | 44 | 917.8 |
| 20260504140933 | 41 | 231 | 2.6 | 5.2 | 0.00 | 0.00 | 0.00 | 50 | 918.0 |
| 20260504130432 | 35 | 220 | 0.0 | 1.7 | 0.00 | 0.00 | 0.00 | 62 | 918.5 |
| 20260504100426 | 31 | 355 | 0.0 | 0.9 | 0.00 | 0.00 | 0.00 | 58 | 918.3 |
| 20260504081920 | 31 | 359 | 0.0 | 2.6 | 0.00 | 0.00 | 0.00 | 57 | 918.7 |
| 20260504081210 | 32 | 108 | 0.0 | 0.0 | 0.00 | 0.00 | 0.00 | 56 | 918.7 |
| 20260504045919 | 36 | 285 | 0.0 | 0.9 | 0.00 | 0.00 | 0.00 | 48 | 919.7 |
| 20260504044922 | 37 | 285 | 0.0 | 0.0 | 0.00 | 0.00 | 0.00 | 46 | 920.0 |
| 20260504044416 | 38 | 285 | 0.0 | 0.9 | 0.00 | 0.00 | 0.00 | 45 | 920.1 |
| 20260504043425 | 38 | 285 | 0.0 | 0.9 | 0.00 | 0.00 | 0.00 | 46 | 920.3 |
| 20260504042426 | 39 | 285 | 0.0 | 0.9 | 0.00 | 0.00 | 0.00 | 45 | 920.2 |
| 20260504041924 | 40 | 285 | 0.0 | 0.0 | 0.00 | 0.00 | 0.00 | 41 | 920.1 |
| 20260504040929 | 41 | 285 | 0.0 | 1.7 | 0.00 | 0.00 | 0.00 | 40 | 920.2 |
| 20260504035918 | 40 | 303 | 0.0 | 1.7 | 0.00 | 0.00 | 0.00 | 41 | 920.3 |
| 20260504034924 | 40 | 294 | 0.0 | 0.0 | 0.00 | 0.00 | 0.00 | 41 | 920.2 |
| 20260504033925 | 41 | 294 | 0.0 | 0.0 | 0.00 | 0.00 | 0.00 | 40 | 920.3 |
| 20260504032938 | 42 | 294 | 0.0 | 0.0 | 0.00 | 0.00 | 0.00 | 39 | 920.4 |
| 20260504032433 | 42 | 294 | 0.0 | 0.0 | 0.00 | 0.00 | 0.00 | 39 | 920.3 |
| 20260504031414 | 43 | 294 | 0.0 | 0.0 | 0.00 | 0.00 | 0.00 | 38 | 920.3 |
| 20260504030425 | 43 | 294 | 0.0 | 1.7 | 0.00 | 0.00 | 0.00 | 38 | 920.1 |
| 20260504024933 | 44 | 290 | 0.0 | 0.9 | 0.00 | 0.00 | 0.00 | 37 | 919.9 |
| 20260504024412 | 44 | 290 | 0.0 | 0.9 | 0.00 | 0.00 | 0.00 | 36 | 919.9 |
| 20260504023415 | 43 | 81 | 0.0 | 0.0 | 0.00 | 0.00 | 0.00 | 46 | 919.7 |
| 20260504022913 | 43 | 81 | 0.0 | 0.0 | 0.00 | 0.00 | 0.00 | 46 | 919.8 |
| 20260504021918 | 45 | 70 | 0.0 | 0.0 | 0.00 | 0.00 | 0.00 | 38 | 919.7 |
| 20260504020919 | 47 | 280 | 0.0 | 0.0 | 0.00 | 0.00 | 0.00 | 36 | 919.5 |
| 20260504015921 | 50 | 280 | 0.0 | 5.2 | 0.00 | 0.00 | 0.00 | 29 | 919.6 |
| 20260504014927 | 50 | 283 | 0.9 | 7.8 | 0.00 | 0.00 | 0.00 | 29 | 919.6 |
| 20260504013926 | 52 | 307 | 2.6 | 7.8 | 0.00 | 0.00 | 0.00 | 28 | 919.7 |
| 20260504012933 | 52 | 271 | 3.5 | 11.3 | 0.00 | 0.00 | 0.00 | 27 | 919.7 |
| 20260504012435 | 52 | 240 | 3.5 | 11.3 | 0.00 | 0.00 | 0.00 | 26 | 919.7 |
| 20260504011415 | 52 | 307 | 2.6 | 8.7 | 0.00 | 0.00 | 0.00 | 27 | 919.8 |
| 20260504010422 | 52 | 297 | 5.2 | 11.3 | 0.00 | 0.00 | 0.00 | 26 | 919.7 |
| 20260504005426 | 53 | 304 | 3.5 | 7.8 | 0.00 | 0.00 | 0.00 | 27 | 919.8 |
| 20260504004431 | 54 | 308 | 3.5 | 11.3 | 0.00 | 0.00 | 0.00 | 25 | 919.8 |
| 20260504003916 | 54 | 297 | 4.3 | 11.3 | 0.00 | 0.00 | 0.00 | 24 | 919.8 |
| 20260504002919 | 54 | 245 | 5.2 | 11.3 | 0.00 | 0.00 | 0.00 | 23 | 919.9 |
| 20260504002417 | 54 | 273 | 4.3 | 9.6 | 0.00 | 0.00 | 0.00 | 23 | 919.9 |
| 20260504001421 | 54 | 269 | 4.3 | 13.9 | 0.00 | 0.00 | 0.00 | 23 | 919.8 |
| 20260504000420 | 55 | 295 | 7.0 | 17.4 | 0.00 | 0.00 | 0.00 | 22 | 919.8 |
| 20260503235424 | 55 | 242 | 6.1 | 18.2 | 0.00 | 0.00 | 0.00 | 24 | 919.8 |
| 20260503234426 | 54 | 256 | 7.0 | 20.0 | 0.00 | 0.00 | 0.00 | 22 | 919.9 |
| 20260503232922 | 55 | 271 | 7.0 | 16.5 | 0.00 | 0.00 | 0.00 | 22 | 920.1 |
| 20260503231918 | 54 | 257 | 7.0 | 12.2 | 0.00 | 0.00 | 0.00 | 24 | 920.1 |
| 20260503230919 | 55 | 231 | 6.1 | 13.9 | 0.00 | 0.00 | 0.00 | 24 | 920.0 |
| 20260503225922 | 55 | 311 | 9.6 | 20.9 | 0.00 | 0.00 | 0.00 | 23 | 920.2 |
| 20260503224926 | 55 | 278 | 5.2 | 15.6 | 0.00 | 0.00 | 0.00 | 25 | 920.4 |
| 20260503223929 | 54 | 304 | 7.0 | 17.4 | 0.00 | 0.00 | 0.00 | 23 | 920.0 |
| 20260503223109 | 55 | 239 | 7.0 | 14.8 | 0.00 | 0.00 | 0.00 | 24 | 920.4 |
| 20260503221913 | 55 | 257 | 6.1 | 17.4 | 0.00 | 0.00 | 0.00 | 24 | 920.3 |
| 20260503220921 | 54 | 310 | 9.6 | 17.4 | 0.00 | 0.00 | 0.00 | 23 | 920.5 |
| 20260503220420 | 54 | 317 | 9.6 | 17.4 | 0.00 | 0.00 | 0.00 | 23 | 920.5 |
| 20260503215419 | 54 | 293 | 6.1 | 13.0 | 0.00 | 0.00 | 0.00 | 27 | 920.6 |